NOAA 17 DEB, 48731

Orbit data source: Space-Track

NOAA 17 DEB, 48731 is space debris in SSO originally from a launch on Mon, 24 Jun 2002 UTC launched from the Air Force Western Test Range (AFWTR). Debris objects in space refer to the collection of defunct objects orbiting the Earth. Examples of debris include non-operational satellites, rocket bodies, and fragments generated from explosions, collisions, or faulty payload assembly.

Loading next visibility...
Identifier
48731, 2002-032BQ
Orbit
SSO
Country
Flag of USUS
Related business
Manufacturer
Unknown
Mission
Spacecraft
Bus & Motor
Unknown
Mass
Unknown
Launch date (UTC)
2002-06-24 (24 years ago)
Launch vehicle
Unknown
Launch site
Air Force Western Test Range (AFWTR)
Object type
Payload
Rocket body
Debris
Shape & HBR
Unknown shape, 0.1 m
Radar Cross Section
Medium (>0.1 m² and <1 m²)

Expand to show TLE details & history
Last TLE update: 3 days ago

TLE from 3 days ago
0 NOAA 17 DEB
1 48731U 02032BQ  26170.39929827  .00004225  00000-0  11946-2 0  9991
2 48731  98.8181 154.9065 0028944 278.6633  81.1279 14.45927342273542
Epoch: 2026-06-19T09:34Z
TLE epoch observation values (Epoch: 2026-06-19T09:34:59.370Z)
Latitude
-0.00001°
Longitude
103.5303°
Altitude
738.808 km
Speed
7.487 km/s
True Right ascension
10h 19m 37s
True Declination
0° 00' 00"
Sunlit
Object was in daylight at epoch
Visualization orbit readout
Latitude
Unknown
Longitude
Unknown
Altitude
Unknown
Speed
Unknown
Apparent Right ascension
Unknown
Apparent Declination
Unknown
Sunlit
N/A
Visualization observer readout
Local Sidereal Time
21:39:02
Azimuth
Unknown
Elevation
Unknown
Doppler factor
Unknown
Orbital elements
Apogee altitude
756.702 km
Perigee altitude
715.519 km
Semi-major axis
7,114.248 km
Eccentricity
0.00289
Inclination
98.8181°
RAAN
154.9065°
Arg. of periapsis
278.6633°
True anomaly
81.45579°
Mean anomaly
81.1279°
Eccentric anomaly
81.29183°
Mean motion
3.61701 °/min
Orbital period
99.53 mins
BSTAR
0.0011946
Loading maneuver chart data...
Computing Atmospheric mass density...

Documentation

Showing up to 5 results
|